Regional Weather Roundup
Issued by NWS

Home | Current Version | Previous Version | Text Only | Print | Product List | Glossary On
Versions: 1 2 3 4 5 6 7 8 9 10 11 12 13 14 15 16 17 18 19 20 21 22 23 24 25 26 27 28 29 30 31 32 33 34 35 36 37 38 39 40 41 42 43 44 45 46 47 48 49 50
000
ASUS46 KSEW 241010
RWRWA

WASHINGTON REGIONAL WEATHER ROUNDUP
NATIONAL WEATHER SERVICE SEATTLE WA
300 AM PDT WED MAY 24 2017

NOTE:"FAIR" INDICATES FEW OR NO CLOUDS BELOW 12,000 FEET WITH NO
SIGNIFICANT WEATHER AND/OR OBSTRUCTIONS TO VISIBILITY.

WAZ507-509-555>559-241100-
SEATTLE, TACOMA, EVERETT, AND VICINITY

CITY           SKY/WX    TMP DP  RH WIND       PRES   REMARKS
EVERETT        CLEAR     48  38  68 W12       30.05F
BOEING FIELD   CLOUDY    52  40  63 E6        30.07S
RENTON         CLOUDY    52  39  61 SE5       30.07S
SEATAC AIRPORT CLOUDY    51  36  56 E9        30.07S
JBLM-MCCHORD   PTCLDY    45  40  83 S5        30.08S
PUYALLUP         N/A     46  39  76 CALM      30.08S
BREMERTON      PTCLDY    46  40  79 CALM      30.07S
JBLM-FT LEWIS  MOCLDY    49  38  66 VRB3      30.11S
TACOMA NARROWS MOCLDY    47  39  74 S7        30.07S
$$

WAZ001-503-506-510-514-515-241100-
NORTH INTERIOR

CITY           SKY/WX    TMP DP  RH WIND       PRES   REMARKS
BELLINGHAM     CLOUDY    51  41  68 S8        30.01S
FRIDAY HARBOR  CLEAR     48  43  82 SW8       30.04F
EASTSOUND      CLEAR     50  41  71 S9        30.02F
PORT ANGELES   CLEAR     47  38  71 W9        30.06F
EDIZ HOOK      FAIR      51  39  63 W20G25    30.05F
PORT TOWNSEND  FAIR      48  39  71 W10       30.05S
NAS WHIDBEY    PTCLDY    51  42  71 W26G35    30.08F
ARLINGTON      MOCLDY    48  36  61 N3        30.08F
BURLINGTON     MOCLDY    48  43  81 SW5       30.05S
$$

WAZ020-022-039-040-504-511-512-241100-
SOUTHWEST INTERIOR

CITY           SKY/WX    TMP DP  RH WIND       PRES   REMARKS
SHELTON        PTCLDY    46  38  73 SW7       30.04S
OLYMPIA        CLOUDY    49  39  68 CALM      30.08R
CHEHALIS       MOCLDY    48  41  76 VRB5      30.10S
KELSO          CLEAR     49  40  71 N3        30.13S
VANCOUVER      CLEAR     51  39  63 NW7       30.13S
SCAPPOOSE, OR  CLEAR     48  38  68 CALM      30.12S
PORTLAND, OR   PTCLDY    51  37  58 NW9G21    30.13F
$$

WAZ021-516-517-241100-
WASHINGTON COAST

CITY           SKY/WX    TMP DP  RH WIND       PRES   REMARKS
FORKS          CLOUDY    49  44  83 NW5       30.11F
HOQUIAM        CLEAR     50  44  80 W12G21    30.13S
ASTORIA, OR    CLOUDY    51  40  65 NW12      30.14F
$$

WAZ019-023-024-040-567>569-241100-
CASCADE MOUNTAINS AND COLUMBIA GORGE

CITY           SKY/WX    TMP DP  RH WIND       PRES   REMARKS
STAMPEDE PASS  CLOUDY    35  30  82 W8        29.95F
TROUTDALE, OR  PTCLDY    51  38  60 VRB5      30.13F
THE DALLES, OR CLEAR     55  36  48 NW29G38   29.95F
$$

WAZ026-027-041>044-520-521-241100-
EAST SLOPES

CITY           SKY/WX    TMP DP  RH WIND       PRES   REMARKS
OMAK           CLEAR     54  19  25 NW15      29.75R
WENATCHEE      CLEAR     51  23  33 NW17      29.85R
ELLENSBURG     CLEAR     48  29  47 NW29G43   29.90R
YAKIMA         CLEAR     55  32  41 NW12      29.89R
SUNNYSIDE ARPT SUNNY     51  31  44 W7        29.89R
$$

WAZ028-034-035-241100-
COLUMBIA BASIN

CITY           SKY/WX    TMP DP  RH WIND       PRES   REMARKS
EPHRATA        CLEAR     55  16  21 W20       29.80R
MOSES LAKE     CLEAR     55  24  30 NW20G31   29.81R
PASCO          CLEAR     58  34  40 W12       29.86R
HERMISTON, OR  CLEAR     57  40  52 W22G30    29.89R
$$

WAZ036>038-241100-
NORTHEAST WASHINGTON

CITY           SKY/WX    TMP DP  RH WIND       PRES   REMARKS
SPOKANE GEIGER CLEAR     53  35  50 W26G33    29.68R
SPOKANE FELTS  CLEAR     57  38  48 W16G26    29.67R
FAIRCHILD AFB  CLEAR     50  35  57 W23G30    29.68R
COEURDALENE,ID CLEAR     56  40  55 SW18G26   29.67R
DEER PARK      CLEAR     58  33  39 SW21G30   29.65R
$$

WAZ029>033-241100-
SOUTHEAST WASHINGTON

CITY           SKY/WX    TMP DP  RH WIND       PRES   REMARKS
PULLMAN        CLEAR     54  41  61 W14       29.79F
LEWISTON, ID   CLEAR     63  46  54 W22G30    29.76R
WALLA WALLA    CLEAR     59  46  62 SW14      29.87R
PENDLETON, OR  CLEAR     55  38  52 W21G32    29.89R
$$



USA.gov is the U.S. government's official web portal to all federal, state and local government web resources and services.